Regional Weather Roundup
Issued by NWS

Home | Current Version | Previous Version | Graphics & Text | Print | Product List | Glossary On
Versions: 1 2 3 4 5 6 7 8 9 10 11 12 13 14 15 16 17 18 19 20 21 22 23 24 25 26 27 28 29 30 31 32 33 34 35 36 37 38 39 40 41 42 43 44 45 46 47 48 49 50
000
ASUS43 KTOP 221208
RWRKS

WEATHER ROUNDUP FOR KANSAS
NATIONAL WEATHER SERVICE GOODLAND KS
700 AM CDT MON SEP 22 2014

NOTE:  "FAIR" INDICATES FEW OR NO CLOUDS BELOW 12,000 FEET WITH NO
SIGNIFICANT WEATHER AND/OR OBSTRUCTIONS TO VISIBILITY.

KSZ001>006-013>018-027>032-041>047-221300-
NORTHWEST KANSAS

CITY           SKY/WX    TMP DP  RH WIND       PRES   REMARKS
GOODLAND       PTCLDY    50  42  74 S13       30.30F
6HR MIN TEMP:  50; 6HR MAX TEMP:  61;

HAYS           PTCLDY    54  43  66 E3        30.32R
HILL CITY      CLOUDY    54  45  71 E5        30.31R
6HR MIN TEMP:  53; 6HR MAX TEMP:  57;

RUSSELL        PTCLDY    51  46  83 SE8       30.30R
6HR MIN TEMP:  49; 6HR MAX TEMP:  55;

$$

KSZ061>065-074>080-084>089-221300-
SOUTHWEST KANSAS

CITY           SKY/WX    TMP DP  RH WIND       PRES   REMARKS
DODGE CITY     CLEAR     53  41  63 SE8       30.33R
6HR MIN TEMP:  51; 6HR MAX TEMP:  59;

ELKHART          N/A     58  44  60 SE13        N/A
GARDEN CITY    CLEAR     52  43  71 SE7       30.31S
6HR MIN TEMP:  51; 6HR MAX TEMP:  61;

GREAT BEND     CLEAR     52  45  76 S3        30.32R
LIBERAL        CLEAR     55  41  58 E5        30.33R
PRATT          CLEAR     54  43  66 E5        30.32S
$$

KSZ066>073-081>083-090>101-221300-
SOUTHEAST KANSAS

CITY           SKY/WX    TMP DP  RH WIND       PRES   REMARKS
CHANUTE        CLEAR     49  48  97 NW3       30.30R
6HR MIN TEMP:  49; 6HR MAX TEMP:  55;

HUTCHINSON     CLEAR     46  43  89 E5        30.31S
6HR MIN TEMP:  46; 6HR MAX TEMP:  61;

MEDICINE LODGE   N/A     53  45  74 CALM      30.31R
NEWTON         CLEAR     54  43  66 E5        30.33R
PARSONS        CLEAR     49  47  93 CALM      30.30R
6HR MIN TEMP:  49; 6HR MAX TEMP:  58;

WICHITA INTL   CLEAR     56  46  69 CALM      30.31R
6HR MIN TEMP:  52; 6HR MAX TEMP:  63;

WICHITA JABRA  CLEAR     50  46  86 N3        30.30R
6HR MIN TEMP:  47; 6HR MAX TEMP:  56;

WICHITA MCCONL CLEAR     52  48  86 NE3       30.31R
WINFIELD       CLEAR     48  46  93 CALM      30.31R
6HR MIN TEMP:  48; 6HR MAX TEMP:  62;

$$

KSZ007>012-019>026-033>040-048>060-102>105-221300-
NORTHEAST KANSAS

CITY           SKY/WX    TMP DP  RH WIND       PRES   REMARKS
CONCORDIA      CLEAR     46  45  96 W3        30.32R
6HR MIN TEMP:  45; 6HR MAX TEMP:  54;

EMPORIA        CLEAR     50  47  89 CALM      30.31R
6HR MIN TEMP:  48; 6HR MAX TEMP:  55;

LAWRENCE       CLEAR     45  43  93 NW5       30.32R
6HR MIN TEMP:  44; 6HR MAX TEMP:  51;

MANHATTAN      CLEAR     46  45  96 CALM      30.32R
6HR MIN TEMP:  43; 6HR MAX TEMP:  51;

MARYSVILLE     CLEAR     43  43 100 CALM      30.32R
OLATHE IND     CLEAR     51  49  92 N3        30.31R
6HR MIN TEMP:  48; 6HR MAX TEMP:  54;

OLATHE EXE     CLEAR     52  48  86 N3        30.30R
6HR MIN TEMP:  50; 6HR MAX TEMP:  59;

SALINA         CLEAR     52  46  80 CALM      30.32R
6HR MIN TEMP:  49; 6HR MAX TEMP:  61;

TOPEKA BILLARD CLEAR     46  46 100 CALM      30.32R
6HR MIN TEMP:  46; 6HR MAX TEMP:  57;

TOPEKA FORBES  CLEAR     46  43  89 NW3       30.31R
6HR MIN TEMP:  45; 6HR MAX TEMP:  52;

$$


USA.gov is the U.S. government's official web portal to all federal, state and local government web resources and services.